This is the latest recevied weather packets stored in our database for station/object BM2MWA-13. If no packets are shown the sender has not sent any weather packets the latest 10 day(s).
| Time | Temp. | Humidity | Pressure | Rain* | Wind** | Luminosity | Snow |
|---|---|---|---|---|---|---|---|
| 1787466423 | 30.56° C | 71% | 997.3 hPa | 0 mm | - | - | - |
| 1787465823 | 30.56° C | 70% | 997.3 hPa | 0 mm | - | - | - |
| 1787465224 | 30.56° C | 70% | 997.4 hPa | 0 mm | - | - | - |
| 1787464624 | 31.11° C | 69% | 997.3 hPa | 0 mm | - | - | - |
| 1787464032 | 31.11° C | 70% | 997.2 hPa | 0 mm | - | - | - |
| 1787463424 | 30.56° C | 69% | 997.2 hPa | 0 mm | - | - | - |
| 1787462824 | 31.11° C | 67% | 997.2 hPa | 0 mm | - | - | - |
| 1787462223 | 30.56° C | 70% | 997.3 hPa | 0 mm | - | - | - |
| 1787461624 | 30.56° C | 69% | 997.4 hPa | 0 mm | - | - | - |
| 1787461024 | 31.11° C | 69% | 997.4 hPa | 0 mm | - | - | - |
| 1787460423 | 31.11° C | 68% | 997.5 hPa | 0 mm | - | - | - |
| 1787459824 | 32.22° C | 68% | 997.6 hPa | 0 mm | - | - | - |
| 1787459224 | 31.11° C | 67% | 997.8 hPa | 0 mm | - | - | - |
| 1787458623 | 31.11° C | 68% | 997.9 hPa | 0 mm | - | - | - |
| 1787458023 | 30.56° C | 71% | 997.9 hPa | 0 mm | - | - | - |
| 1787457424 | 31.11° C | 71% | 998.1 hPa | 0 mm | - | - | - |
| 1787456824 | 30.56° C | 76% | 998.2 hPa | 0 mm | - | - | - |
| 1787456223 | 30° C | 78% | 998.5 hPa | 0 mm | - | - | - |
| 1787455624 | 30° C | 78% | 998.5 hPa | 0 mm | - | - | - |
| 1787455024 | 29.44° C | 78% | 998.3 hPa | 0 mm | - | - | - |
| 1787454424 | 29.44° C | 79% | 998.5 hPa | 0 mm | - | - | - |
| 1787453823 | 29.44° C | 79% | 998.6 hPa | 0 mm | - | - | - |
| 1787453224 | 29.44° C | 79% | 998.6 hPa | 0 mm | - | - | - |
| 1787452623 | 29.44° C | 79% | 998.7 hPa | 0 mm | - | - | - |
| 1787452024 | 29.44° C | 81% | 998.9 hPa | 0 mm | - | - | - |
* Rain latest hour (hover to see other rain measurements)
** Current wind speed in m/s (hover to see current wind gust speed)